TimeCST,TemperatureF,Dew PointF,Humidity,Sea Level PressureIn,VisibilityMPH,Wind Direction,Wind SpeedMPH,Gust SpeedMPH,PrecipitationIn,Events,Conditions,WindDirDegrees,DateUTC
12:21 AM,59.0,57.2,94,29.97,10.0,NE,3.5,-,N/A,,Scattered Clouds,50,2012-12-08 06:21:00
12:56 AM,59.0,57.0,93,29.92,10.0,East,5.8,-,N/A,,Scattered Clouds,80,2012-12-08 06:56:00
1:56 AM,61.0,59.0,93,29.91,10.0,East,3.5,-,N/A,,Mostly Cloudy,100,2012-12-08 07:56:00
2:56 AM,61.0,59.0,93,29.91,10.0,East,4.6,-,N/A,,Overcast,90,2012-12-08 08:56:00
3:56 AM,62.1,60.1,93,29.91,10.0,ENE,4.6,-,0.00,,Overcast,60,2012-12-08 09:56:00
4:56 AM,62.1,60.1,93,29.92,9.0,ENE,3.5,-,0.00,Rain,Light Rain,70,2012-12-08 10:56:00
5:56 AM,62.1,60.1,93,29.94,10.0,NE,3.5,-,0.00,,Overcast,50,2012-12-08 11:56:00
6:47 AM,62.6,60.8,94,29.99,3.0,Calm,Calm,-,N/A,Rain,Rain,0,2012-12-08 12:47:00
6:56 AM,62.1,60.1,93,29.96,3.0,Calm,Calm,-,N/A,Rain,Rain,0,2012-12-08 12:56:00
7:32 AM,62.6,60.8,94,30.01,10.0,East,3.5,-,N/A,,Overcast,80,2012-12-08 13:32:00
7:51 AM,62.6,60.8,94,30.00,10.0,East,5.8,-,N/A,,Overcast,100,2012-12-08 13:51:00
7:56 AM,63.0,60.1,90,29.97,10.0,ESE,6.9,-,N/A,,Overcast,110,2012-12-08 13:56:00
8:09 AM,62.6,60.8,94,30.01,10.0,East,5.8,-,N/A,,Overcast,100,2012-12-08 14:09:00
8:24 AM,62.6,60.8,94,30.01,10.0,East,3.5,-,N/A,,Overcast,100,2012-12-08 14:24:00
8:37 AM,62.6,60.8,94,30.02,10.0,ESE,4.6,-,N/A,,Overcast,110,2012-12-08 14:37:00
8:56 AM,64.0,61.0,90,29.99,10.0,ESE,3.5,-,N/A,,Overcast,110,2012-12-08 14:56:00
9:56 AM,68.0,64.0,87,29.97,10.0,ESE,5.8,-,N/A,,Overcast,120,2012-12-08 15:56:00
10:45 AM,69.8,64.4,83,30.01,10.0,SSE,4.6,-,N/A,,Mostly Cloudy,150,2012-12-08 16:45:00
10:56 AM,70.0,64.0,81,29.97,10.0,SSE,3.5,-,N/A,,Mostly Cloudy,150,2012-12-08 16:56:00
11:14 AM,71.6,64.4,78,30.00,10.0,Variable,3.5,-,N/A,,Mostly Cloudy,0,2012-12-08 17:14:00
11:52 AM,75.2,62.6,65,29.97,10.0,South,5.8,-,N/A,,Mostly Cloudy,180,2012-12-08 17:52:00
11:56 AM,73.9,62.1,66,29.93,10.0,Variable,5.8,-,N/A,,Mostly Cloudy,0,2012-12-08 17:56:00
12:23 PM,75.2,60.8,61,29.96,10.0,SW,3.5,-,N/A,,Scattered Clouds,220,2012-12-08 18:23:00
12:56 PM,73.9,61.0,64,29.91,10.0,SSW,8.1,-,N/A,,Clear,200,2012-12-08 18:56:00
1:56 PM,75.9,60.1,58,29.90,10.0,Variable,5.8,-,N/A,,Scattered Clouds,0,2012-12-08 19:56:00
2:56 PM,75.0,62.1,64,29.90,10.0,South,8.1,-,N/A,,Scattered Clouds,180,2012-12-08 20:56:00
3:56 PM,72.0,63.0,73,29.91,10.0,South,8.1,-,N/A,,Clear,170,2012-12-08 21:56:00
4:56 PM,66.9,63.0,87,29.93,10.0,South,3.5,-,N/A,,Clear,180,2012-12-08 22:56:00
5:56 PM,66.0,61.0,84,29.94,10.0,Calm,Calm,-,N/A,,Clear,0,2012-12-08 23:56:00
6:56 PM,64.9,61.0,87,29.96,10.0,Calm,Calm,-,N/A,,Clear,0,2012-12-09 00:56:00
7:15 PM,66.2,62.6,88,30.00,10.0,Calm,Calm,-,N/A,,Mostly Cloudy,0,2012-12-09 01:15:00
7:56 PM,64.9,62.1,90,29.97,10.0,Calm,Calm,-,N/A,,Mostly Cloudy,0,2012-12-09 01:56:00
8:37 PM,64.4,60.8,88,30.02,10.0,Calm,Calm,-,N/A,,Scattered Clouds,0,2012-12-09 02:37:00
8:56 PM,64.0,61.0,90,29.98,10.0,SSE,3.5,-,N/A,,Clear,150,2012-12-09 02:56:00
9:56 PM,63.0,61.0,93,29.98,2.5,Calm,Calm,-,N/A,,Clear,0,2012-12-09 03:56:00
10:03 PM,62.6,60.8,94,30.02,0.8,Calm,Calm,-,N/A,,Clear,0,2012-12-09 04:03:00
10:22 PM,62.6,60.8,94,30.02,0.8,Calm,Calm,-,N/A,,Mist,0,2012-12-09 04:22:00
10:56 PM,57.0,55.0,93,29.98,0.5,Calm,Calm,-,N/A,Fog,Fog,0,2012-12-09 04:56:00
11:56 PM,57.0,55.0,93,29.97,0.5,Calm,Calm,-,N/A,Fog,Fog,0,2012-12-09 05:56:00